DAL1020 LERS-LIRP

Flight info

Callsign DAL1020
Flight time 1h 10m
Altitude 30000
Route BCN M985 LUMAS DCT TORTU DCT KONER
Aircraft L101/H-SDFGHIRWXY/S

Departure

Time 2026-05-09 13:29
Airport Reus Airport (LERS)

Arrival

Time 2026-05-09 14:39
Airport Pisa International Airport (LIRP)
Time Latitude Longitude Altitude Speed Heading
2026-05-09 13:01 41.14787 1.15990 245 ft 0 kts 338°
2026-05-09 13:20 41.14780 1.15993 245 ft 2 kts 338°
2026-05-09 13:21 41.14765 1.16001 245 ft 3 kts 338°
2026-05-09 13:21 41.14748 1.16010 245 ft 3 kts 338°
2026-05-09 13:21 41.14732 1.16021 245 ft 3 kts 342°
2026-05-09 13:21 41.14714 1.16021 245 ft 3 kts 36°
2026-05-09 13:22 41.14708 1.16015 245 ft 0 kts 60°
2026-05-09 13:22 41.14708 1.16016 245 ft 0 kts 60°
2026-05-09 13:22 41.14710 1.16020 245 ft 1 kts 60°
2026-05-09 13:23 41.14728 1.16076 245 ft 5 kts 67°
2026-05-09 13:23 41.14746 1.16132 245 ft 8 kts 67°
2026-05-09 13:24 41.14769 1.16208 245 ft 10 kts 68°
2026-05-09 13:24 41.14797 1.16303 245 ft 12 kts 70°
2026-05-09 13:24 41.14828 1.16415 245 ft 14 kts 69°
2026-05-09 13:24 41.14864 1.16543 246 ft 16 kts 70°
2026-05-09 13:25 41.14905 1.16683 246 ft 17 kts 69°
2026-05-09 13:25 41.14949 1.16834 246 ft 18 kts 69°
2026-05-09 13:25 41.15049 1.17174 246 ft 21 kts 69°
2026-05-09 13:26 41.15099 1.17346 247 ft 19 kts 69°
2026-05-09 13:26 41.15144 1.17495 247 ft 17 kts 68°
2026-05-09 13:26 41.15188 1.17649 248 ft 19 kts 70°
2026-05-09 13:26 41.15235 1.17814 248 ft 20 kts 68°
2026-05-09 13:27 41.15286 1.17990 248 ft 21 kts 69°
2026-05-09 13:27 41.15332 1.18149 249 ft 14 kts 69°
2026-05-09 13:27 41.15360 1.18248 249 ft 8 kts 75°
2026-05-09 13:27 41.15346 1.18319 249 ft 8 kts 135°
2026-05-09 13:28 41.15286 1.18339 249 ft 10 kts 195°
2026-05-09 13:28 41.15218 1.18294 250 ft 11 kts 216°
2026-05-09 13:28 41.15158 1.18142 250 ft 41 kts 250°
2026-05-09 13:28 41.14950 1.17435 246 ft 124 kts 249°
2026-05-09 13:29 41.14546 1.16079 389 ft 182 kts 249°
2026-05-09 13:29 41.14072 1.14405 1113 ft 203 kts 249°
2026-05-09 13:29 41.13574 1.12649 2134 ft 212 kts 248°
2026-05-09 13:29 41.13044 1.10708 2802 ft 237 kts 249°
2026-05-09 13:30 41.12506 1.08612 3232 ft 238 kts 250°
2026-05-09 13:30 41.11950 1.06453 3411 ft 257 kts 249°
2026-05-09 13:30 41.11168 1.04296 3855 ft 259 kts 237°
2026-05-09 13:30 41.10123 1.02359 4412 ft 262 kts 230°
2026-05-09 13:31 41.08880 1.00433 4568 ft 297 kts 227°
2026-05-09 13:31 41.07529 0.98227 5085 ft 317 kts 232°
2026-05-09 13:31 41.06296 0.95808 6188 ft 312 kts 238°
2026-05-09 13:31 41.05257 0.93419 7738 ft 287 kts 241°
2026-05-09 13:32 41.04520 0.91063 9173 ft 272 kts 259°
2026-05-09 13:32 41.04736 0.85992 10527 ft 296 kts 287°
2026-05-09 13:32 41.05515 0.83332 10651 ft 325 kts 301°
2026-05-09 13:33 41.06901 0.80815 10774 ft 353 kts 316°
2026-05-09 13:33 41.08878 0.78716 10848 ft 378 kts 331°
2026-05-09 13:33 41.11328 0.77237 11178 ft 393 kts 344°
2026-05-09 13:33 41.14001 0.76522 12076 ft 391 kts 356°
2026-05-09 13:34 41.16682 0.76382 13350 ft 383 kts
2026-05-09 13:34 41.19362 0.76625 14087 ft 390 kts 10°
2026-05-09 13:34 41.22077 0.77363 14394 ft 407 kts 18°
2026-05-09 13:34 41.24798 0.78533 15127 ft 412 kts 22°
2026-05-09 13:35 41.27419 0.79995 16232 ft 407 kts 28°
2026-05-09 13:35 41.29894 0.81860 16962 ft 413 kts 36°
2026-05-09 13:35 41.32201 0.84254 17378 ft 427 kts 45°
2026-05-09 13:35 41.34168 0.87204 18266 ft 425 kts 57°
2026-05-09 13:36 41.35249 0.89365 18815 ft 426 kts 61°
2026-05-09 13:36 41.36715 0.92871 19203 ft 441 kts 65°
2026-05-09 13:36 41.38058 0.96574 19812 ft 447 kts 68°
2026-05-09 13:36 41.39325 1.00330 20901 ft 444 kts 69°
2026-05-09 13:37 41.40978 1.05383 21715 ft 459 kts 70°
2026-05-09 13:37 41.41841 1.08049 22269 ft 461 kts 70°
2026-05-09 13:37 41.43112 1.11987 23151 ft 466 kts 71°
2026-05-09 13:37 41.44375 1.16002 23776 ft 473 kts 72°
2026-05-09 13:38 41.45636 1.20112 24108 ft 486 kts 72°
2026-05-09 13:38 41.46915 1.24304 24793 ft 488 kts 72°
2026-05-09 13:38 41.48202 1.28480 25608 ft 490 kts 72°
2026-05-09 13:38 41.49510 1.32722 26150 ft 496 kts 72°
2026-05-09 13:39 41.50824 1.36991 26776 ft 500 kts 72°
2026-05-09 13:39 41.52083 1.41314 27367 ft 501 kts 77°
2026-05-09 13:39 41.52738 1.45854 27951 ft 495 kts 93°
2026-05-09 13:39 41.52426 1.50369 28543 ft 487 kts 108°
2026-05-09 13:40 41.51374 1.54632 29152 ft 482 kts 117°
2026-05-09 13:40 41.50073 1.58725 30074 ft 480 kts 119°
2026-05-09 13:40 41.47407 1.66879 29984 ft 477 kts 120°
2026-05-09 13:41 41.44544 1.74826 29946 ft 474 kts 122°
2026-05-09 13:41 41.41528 1.82631 29934 ft 474 kts 123°
2026-05-09 13:42 41.38483 1.90419 29977 ft 474 kts 123°
2026-05-09 13:42 41.35422 1.98187 29985 ft 474 kts 123°
2026-05-09 13:43 41.32598 2.06126 29962 ft 482 kts 110°
2026-05-09 13:43 41.32143 2.10565 29954 ft 492 kts 94°
2026-05-09 13:43 41.32541 2.15117 30032 ft 499 kts 85°
2026-05-09 13:44 41.33757 2.24254 30004 ft 503 kts 86°
2026-05-09 13:44 41.34973 2.33454 29970 ft 507 kts 84°
2026-05-09 13:45 41.36514 2.42639 29948 ft 509 kts 82°
2026-05-09 13:45 41.38119 2.51824 29929 ft 509 kts 82°
2026-05-09 13:46 41.39715 2.61011 29917 ft 509 kts 82°
2026-05-09 13:46 41.41325 2.70214 29907 ft 510 kts 82°
2026-05-09 13:47 41.42936 2.79427 29921 ft 511 kts 82°
2026-05-09 13:47 41.44543 2.88647 29922 ft 511 kts 82°
2026-05-09 13:48 41.46138 2.97873 29912 ft 511 kts 82°
2026-05-09 13:48 41.47730 3.07108 29905 ft 511 kts 82°
2026-05-09 13:49 41.49311 3.16336 29914 ft 510 kts 82°
2026-05-09 13:49 41.50827 3.25561 29916 ft 509 kts 83°
2026-05-09 13:50 41.52293 3.34794 29917 ft 509 kts 82°
2026-05-09 13:50 41.53811 3.44021 29908 ft 509 kts 82°
2026-05-09 13:51 41.55169 3.53282 29898 ft 504 kts 89°
2026-05-09 13:51 41.55915 3.62585 29911 ft 507 kts 84°
2026-05-09 13:52 41.57528 3.71794 29919 ft 511 kts 79°
2026-05-09 13:52 41.59532 3.80919 29896 ft 512 kts 78°
2026-05-09 13:53 41.61376 3.90092 29909 ft 510 kts 81°
2026-05-09 13:53 41.62905 3.99342 29915 ft 509 kts 83°
2026-05-09 13:54 41.64285 4.08607 29915 ft 508 kts 83°
2026-05-09 13:54 41.65681 4.17879 29912 ft 509 kts 83°
2026-05-09 13:55 41.67134 4.27105 29916 ft 513 kts 83°
2026-05-09 13:55 41.68633 4.36441 29911 ft 514 kts 83°
2026-05-09 13:56 41.70122 4.45797 29921 ft 514 kts 83°
2026-05-09 13:56 41.71586 4.55149 29916 ft 513 kts 83°
2026-05-09 13:57 41.73038 4.64525 29914 ft 517 kts 82°
2026-05-09 13:57 41.75402 4.73706 29911 ft 528 kts 68°
2026-05-09 13:58 41.79101 4.82255 29924 ft 533 kts 60°
2026-05-09 13:58 41.83155 4.90580 29921 ft 533 kts 61°
2026-05-09 13:59 41.86965 4.99089 29922 ft 532 kts 64°
2026-05-09 13:59 41.90503 5.07813 29926 ft 532 kts 65°
2026-05-09 14:00 41.92811 5.13694 29929 ft 532 kts 65°
2026-05-09 14:00 41.97455 5.25368 29929 ft 533 kts 65°
2026-05-09 14:01 42.01014 5.34110 29917 ft 533 kts 64°
2026-05-09 14:01 42.04591 5.42869 29934 ft 534 kts 64°
2026-05-09 14:02 42.08152 5.51649 29938 ft 534 kts 64°
2026-05-09 14:02 42.11684 5.60432 29938 ft 533 kts 64°
2026-05-09 14:03 42.15203 5.69220 29946 ft 533 kts 64°
2026-05-09 14:03 42.18717 5.78017 29946 ft 535 kts 64°
2026-05-09 14:04 42.21686 5.85455 29949 ft 536 kts 64°
2026-05-09 14:04 42.25212 5.94308 29954 ft 536 kts 64°
2026-05-09 14:05 42.28719 6.03151 29946 ft 532 kts 64°
2026-05-09 14:05 42.32182 6.11913 29951 ft 532 kts 64°
2026-05-09 14:06 42.35666 6.20758 29963 ft 534 kts 64°
2026-05-09 14:06 42.39154 6.29631 29960 ft 534 kts 64°
2026-05-09 14:07 42.42634 6.38506 29962 ft 534 kts 64°
2026-05-09 14:07 42.46106 6.47389 29946 ft 533 kts 64°
2026-05-09 14:08 42.49568 6.56283 29963 ft 534 kts 64°
2026-05-09 14:08 42.53030 6.65202 29978 ft 535 kts 64°
2026-05-09 14:09 42.56485 6.74128 29973 ft 535 kts 64°
2026-05-09 14:09 42.59936 6.83073 29982 ft 535 kts 64°
2026-05-09 14:10 42.65099 6.96511 29986 ft 536 kts 64°
2026-05-09 14:11 42.68535 7.05492 29990 ft 536 kts 64°
2026-05-09 14:11 42.71964 7.14479 29984 ft 535 kts 65°
2026-05-09 14:12 42.75387 7.23480 29987 ft 535 kts 65°
2026-05-09 14:12 42.78802 7.32484 29992 ft 536 kts 65°
2026-05-09 14:13 42.82209 7.41497 29984 ft 536 kts 65°
2026-05-09 14:15 42.95795 7.77729 29995 ft 538 kts 65°
2026-05-09 14:15 42.99187 7.86849 29999 ft 538 kts 65°
2026-05-09 14:16 43.02572 7.95976 30002 ft 538 kts 65°
2026-05-09 14:16 43.05949 8.05120 29987 ft 540 kts 65°
2026-05-09 14:17 43.09332 8.14299 29997 ft 540 kts 65°
2026-05-09 14:17 43.12705 8.23487 29994 ft 540 kts 65°
2026-05-09 14:18 43.16072 8.32684 30011 ft 541 kts 65°
2026-05-09 14:18 43.19433 8.41906 30000 ft 542 kts 64°
2026-05-09 14:19 43.22800 8.51162 30007 ft 543 kts 65°
2026-05-09 14:19 43.25590 8.58861 30001 ft 543 kts 65°
2026-05-09 14:20 43.28942 8.68137 30008 ft 543 kts 65°
2026-05-09 14:20 43.32287 8.77436 30015 ft 544 kts 64°
2026-05-09 14:21 43.37312 8.91443 30018 ft 545 kts 64°
2026-05-09 14:21 43.40415 9.00945 30015 ft 544 kts 71°
2026-05-09 14:22 43.42534 9.10907 30013 ft 543 kts 78°
2026-05-09 14:22 43.44214 9.21054 30020 ft 545 kts 79°
2026-05-09 14:23 43.46016 9.31196 30040 ft 546 kts 76°
2026-05-09 14:23 43.48050 9.41284 30043 ft 547 kts 75°
2026-05-09 14:24 43.50156 9.51296 30029 ft 548 kts 75°
2026-05-09 14:24 43.52263 9.61394 30033 ft 549 kts 75°
2026-05-09 14:25 43.54403 9.71575 30036 ft 549 kts 75°
2026-05-09 14:25 43.56491 9.81637 30040 ft 549 kts 75°
2026-05-09 14:26 43.58296 9.91895 29235 ft 538 kts 83°
2026-05-09 14:26 43.58690 9.96989 28137 ft 530 kts 88°
2026-05-09 14:26 43.58827 10.01914 27518 ft 511 kts 90°
2026-05-09 14:27 43.58894 10.06767 26477 ft 503 kts 90°
2026-05-09 14:27 43.59106 10.11572 25398 ft 499 kts 84°
2026-05-09 14:27 43.59542 10.16260 24494 ft 489 kts 82°
2026-05-09 14:27 43.60030 10.20858 23539 ft 480 kts 82°
2026-05-09 14:28 43.60468 10.25380 22461 ft 472 kts 83°
2026-05-09 14:28 43.60823 10.29849 21412 ft 464 kts 85°
2026-05-09 14:28 43.61071 10.34241 20497 ft 454 kts 87°
2026-05-09 14:28 43.61243 10.38544 19630 ft 444 kts 87°
2026-05-09 14:29 43.61408 10.42756 18723 ft 437 kts 86°
2026-05-09 14:29 43.61759 10.46882 17728 ft 429 kts 78°
2026-05-09 14:29 43.62594 10.50780 16716 ft 420 kts 65°
2026-05-09 14:29 43.64080 10.54203 15683 ft 412 kts 49°
2026-05-09 14:30 43.66097 10.56940 14745 ft 403 kts 35°
2026-05-09 14:30 43.68444 10.58874 14200 ft 383 kts 22°
2026-05-09 14:30 43.70869 10.60314 13413 ft 377 kts 21°
2026-05-09 14:30 43.73243 10.61792 12586 ft 372 kts 25°
2026-05-09 14:31 43.75483 10.63522 11886 ft 367 kts 27°
2026-05-09 14:31 43.77838 10.64770 11350 ft 361 kts 11°
2026-05-09 14:31 43.80322 10.65000 10679 ft 357 kts 354°
2026-05-09 14:31 43.82724 10.64276 9991 ft 353 kts 337°
2026-05-09 14:32 43.84778 10.62566 9411 ft 339 kts 317°
2026-05-09 14:32 43.86286 10.60172 8927 ft 323 kts 301°
2026-05-09 14:32 43.87124 10.57428 8317 ft 299 kts 280°
2026-05-09 14:32 43.87148 10.54663 7882 ft 283 kts 257°
2026-05-09 14:33 43.86415 10.52216 8043 ft 268 kts 233°
2026-05-09 14:33 43.85192 10.50362 7551 ft 265 kts 218°
2026-05-09 14:33 43.83547 10.49106 6858 ft 273 kts 196°
2026-05-09 14:33 43.81699 10.48666 6316 ft 272 kts 186°
2026-05-09 14:34 43.79937 10.48008 6027 ft 254 kts 204°
2026-05-09 14:34 43.78471 10.46682 5539 ft 244 kts 215°
2026-05-09 14:34 43.77030 10.45537 5118 ft 234 kts 201°
2026-05-09 14:34 43.75553 10.44831 4852 ft 219 kts 198°
2026-05-09 14:35 43.74159 10.44030 4429 ft 215 kts 204°
2026-05-09 14:35 43.72794 10.43256 3933 ft 213 kts 192°
2026-05-09 14:35 43.71416 10.43330 3888 ft 188 kts 162°
2026-05-09 14:35 43.70393 10.44328 3813 ft 184 kts 130°
2026-05-09 14:36 43.69959 10.45984 3752 ft 189 kts 94°
2026-05-09 14:36 43.70330 10.47701 3778 ft 186 kts 59°
2026-05-09 14:36 43.71286 10.48902 3621 ft 193 kts 28°
2026-05-09 14:36 43.72573 10.49145 3525 ft 186 kts 352°
2026-05-09 14:37 43.73718 10.48335 3245 ft 187 kts 316°
2026-05-09 14:37 43.74329 10.46807 3059 ft 182 kts 282°
2026-05-09 14:37 43.74274 10.45078 2773 ft 181 kts 258°
2026-05-09 14:37 43.73925 10.43435 2421 ft 174 kts 244°
2026-05-09 14:38 43.73018 10.42453 1866 ft 168 kts 201°
2026-05-09 14:38 43.71905 10.42067 1343 ft 162 kts 195°
2026-05-09 14:38 43.70838 10.41679 795 ft 154 kts 201°
2026-05-09 14:38 43.69930 10.41001 316 ft 145 kts 214°
2026-05-09 14:39 43.69098 10.40176 30 ft 140 kts 218°
2026-05-09 14:39 43.68417 10.39466 22 ft 105 kts 217°
2026-05-09 14:39 43.67918 10.38942 17 ft 77 kts 216°
2026-05-09 14:39 43.67611 10.38635 25 ft 33 kts 216°
2026-05-09 14:40 43.67538 10.38509 22 ft 13 kts 275°
2026-05-09 14:40 43.67595 10.38386 17 ft 18 kts 308°
2026-05-09 14:40 43.67677 10.38242 15 ft 19 kts 308°
2026-05-09 14:40 43.67761 10.38133 18 ft 17 kts 345°
2026-05-09 14:41 43.67875 10.38176 20 ft 18 kts 34°
2026-05-09 14:41 43.67985 10.38290 18 ft 21 kts 36°
2026-05-09 14:41 43.68106 10.38414 19 ft 21 kts 36°
2026-05-09 14:41 43.68228 10.38537 18 ft 22 kts 36°
2026-05-09 14:42 43.68329 10.38643 22 ft 10 kts 38°
2026-05-09 14:42 43.68353 10.38718 19 ft 10 kts 109°
2026-05-09 14:42 43.68307 10.38807 18 ft 13 kts 127°
2026-05-09 14:42 43.68248 10.38929 15 ft 16 kts 99°
2026-05-09 14:43 43.68317 10.39038 16 ft 17 kts 37°
2026-05-09 14:43 43.68416 10.39139 18 ft 19 kts 36°
2026-05-09 14:43 43.68529 10.39254 21 ft 21 kts 36°
2026-05-09 14:43 43.68653 10.39380 20 ft 24 kts 37°
2026-05-09 14:44 43.68794 10.39524 21 ft 26 kts 37°
2026-05-09 14:44 43.68946 10.39686 19 ft 28 kts 38°
2026-05-09 14:44 43.69096 10.39845 22 ft 19 kts 38°
2026-05-09 14:44 43.69211 10.39919 22 ft 19 kts 353°
2026-05-09 14:45 43.69334 10.39896 22 ft 15 kts 353°
2026-05-09 14:45 43.69431 10.39893 22 ft 15 kts
2026-05-09 14:45 43.69543 10.39917 20 ft 18 kts 10°
2026-05-09 14:45 43.69604 10.39936 24 ft 4 kts 33°
2026-05-09 14:46 43.69617 10.39964 20 ft 2 kts 74°
2026-05-09 14:46 43.69617 10.39969 20 ft 0 kts 80°